Date,TemperatureHighF,TemperatureAvgF,TemperatureLowF,DewpointHighF,DewpointAvgF,DewpointLowF,HumidityHigh,HumidityAvg,HumidityLow,PressureMaxIn,PressureMinIn,WindSpeedMaxMPH,WindSpeedAvgMPH,GustSpeedMaxMPH,PrecipitationSumIn
2014-1-11,53.6,49.6,43.9,32.9,29.3,20.4,53,46,37,0.00,0.00,0,0,0,0.00
2014-1-12,45.7,39.7,35.3,22.7,13.0,3.6,47,12,1,0.00,0.00,0,0,0,0.00
2014-1-13,53.5,40.4,32.0,22.5,16.8,14.1,54,41,21,24.40,24.40,0,0,0,0.00
2014-1-14,61.2,46.6,37.8,18.2,12.9,8.3,44,28,13,0.00,0.00,0,0,0,0.00
2014-1-15,61.2,47.9,39.6,14.4,9.5,5.2,29,22,11,24.42,0.00,0,0,0,0.00
2014-1-16,61.6,48.6,40.7,12.8,6.7,1.8,27,19,8,0.00,0.00,0,0,0,0.00
2014-1-17,60.3,48.1,40.0,13.7,7.8,1.6,28,20,10,24.31,0.00,0,0,0,0.00
2014-1-18,60.3,47.8,40.0,12.0,6.8,3.2,27,20,10,24.25,0.00,0,0,0,0.00
2014-1-19,58.3,46.6,40.0,13.7,8.0,3.8,27,21,15,0.00,0.00,0,0,0,0.00
2014-1-20,58.3,46.8,38.7,13.5,10.1,7.8,29,23,15,24.24,0.00,0,0,0,0.00
2014-1-21,53.8,45.4,39.1,16.5,10.5,6.0,29,24,17,24.33,0.00,0,0,0,0.00
2014-1-22,58.5,46.8,39.8,18.2,10.4,6.9,28,23,17,24.18,0.00,0,0,0,0.00
2014-1-23,53.5,43.4,37.3,12.1,9.6,6.0,30,25,18,24.06,24.06,0,0,0,0.00
2014-1-24,53.3,44.2,37.1,19.2,14.9,11.7,40,31,24,24.28,24.28,0,0,0,0.00
2014-1-25,56.2,46.9,39.6,20.7,16.5,14.1,38,30,20,24.30,24.30,0,0,0,0.00
2014-1-26,52.0,44.6,38.9,23.0,19.3,14.8,42,37,28,24.19,0.00,0,0,0,0.00
2014-1-27,53.5,42.2,35.5,24.1,19.5,15.6,46,40,30,24.14,24.14,0,0,0,0.00
2014-1-28,55.3,43.9,37.1,28.8,22.1,17.6,49,42,29,0.00,0.00,0,0,0,0.00
2014-1-29,59.8,46.6,39.2,34.9,28.2,14.9,56,49,36,24.21,0.00,0,0,0,0.00
2014-1-31,29.2,29.1,29.0,20.8,20.8,20.7,1,1,1,0.00,40.00,0,0,0,0.00
2014-2-1,34.2,26.8,21.1,27.1,22.6,16.8,3,1,1,0.00,0.00,0,0,0,0.04
2014-2-2,36.4,27.4,21.2,27.0,19.6,3.1,20,5,1,24.03,0.00,0,0,0,0.00
2014-2-3,32.6,26.6,23.9,24.8,22.7,18.0,2,1,1,0.00,0.00,0,0,0,0.00
2014-2-4,34.2,29.4,25.9,23.2,20.5,16.8,1,1,1,23.97,23.97,0,0,0,0.00
2014-2-5,38.7,29.6,23.2,25.4,19.8,3.2,17,2,1,24.05,24.05,0,0,0,0.00
2014-2-6,32.0,29.3,26.5,22.9,19.8,11.0,45,6,1,0.00,0.00,0,0,0,0.38
2014-2-7,38.5,31.9,29.0,20.8,18.5,13.3,3,1,1,24.05,24.05,0,0,0,0.10
2014-2-8,43.2,37.4,32.0,18.4,14.2,9.8,1,1,1,24.16,0.00,0,0,0,0.02
2014-2-9,48.4,39.6,34.9,16.2,12.5,5.7,1,1,1,24.18,0.00,0,0,0,0.00
2014-2-10,49.1,40.4,36.0,15.4,11.9,5.1,3,1,1,24.16,24.16,0,0,0,0.04
2014-2-11,57.1,40.5,30.8,25.9,15.4,3.3,44,7,1,0.00,0.00,0,0,0,0.04
2014-2-12,60.1,49.4,40.7,37.3,26.8,21.9,49,42,28,0.00,0.00,0,0,0,0.00
2014-2-13,63.0,52.6,44.6,36.3,25.0,7.6,47,35,17,0.00,0.00,0,0,0,0.00
2014-2-14,62.1,52.2,44.6,32.8,28.0,23.9,47,40,30,0.00,0.00,0,0,0,0.00
2014-2-15,61.2,49.2,0.0,29.5,20.0,0.0,44,29,18,0.00,0.00,0,0,0,0.00
2014-2-16,51.7,47.5,41.9,31.1,12.4,2.9,47,22,1,0.00,0.00,0,0,0,0.00
2014-2-17,55.1,36.3,0.0,30.7,17.7,0.0,46,29,1,0.00,0.00,0,0,0,0.00
2014-2-18,57.4,43.9,33.1,35.6,23.2,9.4,46,20,1,0.00,0.00,0,0,0,0.00
2014-2-19,50.2,41.7,33.1,24.3,14.8,4.6,48,16,1,0.00,0.00,0,0,0,0.00
2014-2-20,54.0,41.8,30.4,30.2,21.1,10.8,44,18,1,24.17,24.17,0,0,0,0.00
2014-2-21,55.8,44.7,36.4,32.6,23.8,12.0,49,44,25,24.12,24.12,0,0,0,0.00
2014-3-8,58.3,55.9,53.6,28.5,27.3,26.1,38,34,29,0.00,0.00,0,0,0,0.00
2014-3-9,60.3,48.9,41.8,32.1,22.6,17.4,48,37,19,24.31,0.00,0,0,0,0.00
2014-3-10,54.0,47.2,42.1,30.2,22.5,6.0,46,37,1,0.00,0.00,0,0,0,0.00
2014-3-11,56.0,45.6,36.0,29.5,19.3,7.9,44,18,1,0.00,0.00,0,0,0,0.00
2014-3-12,53.3,41.1,30.4,20.2,17.0,14.4,51,39,23,24.13,0.00,0,0,0,0.00
2014-3-13,51.8,42.7,34.9,24.0,18.8,15.6,48,39,28,0.00,0.00,0,0,0,0.00
2014-3-14,55.8,44.4,35.5,28.6,21.5,10.9,48,40,34,0.00,0.00,0,0,0,0.00
2014-3-15,63.7,48.7,37.6,36.0,21.1,2.0,49,35,18,0.00,0.00,0,0,0,0.00
2014-3-16,69.3,53.0,43.4,31.1,24.0,20.1,47,35,17,24.40,24.40,0,0,0,0.00
2014-3-17,51.5,46.0,0.0,30.6,22.8,0.0,48,37,15,0.00,0.00,0,0,0,0.00
2014-3-18,56.7,43.2,32.8,24.4,17.4,13.2,42,17,1,23.98,0.00,0,0,0,0.00
2014-3-19,58.9,43.4,33.7,25.7,15.3,11.3,40,33,17,0.00,0.00,0,0,0,0.00
2014-3-20,56.0,47.1,40.1,28.7,23.8,21.3,48,40,31,24.11,0.00,0,0,0,0.00
2014-3-21,56.7,47.9,41.9,33.6,28.3,24.1,50,47,37,0.00,0.00,0,0,0,0.00
2014-3-22,58.3,42.6,0.0,34.6,22.5,0.0,48,36,30,0.00,0.00,0,0,0,0.00
2014-3-23,61.6,46.4,36.0,35.2,21.2,0.0,50,33,7,24.15,0.00,0,0,0,0.00
2014-3-24,67.1,51.0,40.5,30.7,22.9,11.3,49,37,12,0.00,0.00,0,0,0,0.00
2014-3-25,60.8,49.1,40.7,36.9,28.3,20.4,50,44,40,0.00,0.00,0,0,0,0.00
2014-3-26,35.6,30.3,0.0,20.2,17.2,0.0,1,1,1,0.00,0.00,0,0,0,1.42
2014-4-8,66.4,65.9,65.5,40.0,39.6,39.2,38,38,38,0.00,40.00,0,0,0,0.00
2014-4-9,67.3,56.3,46.1,35.0,28.5,24.7,48,36,21,0.00,0.00,0,0,0,0.00
2014-4-10,68.8,55.6,45.9,36.2,29.9,25.7,48,38,24,0.00,0.00,0,0,0,0.00
2014-4-11,66.8,56.4,48.2,40.2,30.2,21.0,44,37,31,0.00,0.00,0,0,0,0.00
2014-4-12,57.2,54.2,48.2,33.0,20.9,0.9,41,27,1,24.02,0.00,0,0,0,0.00
2014-4-13,59.0,52.0,45.4,24.2,10.3,1.1,39,17,1,24.01,0.00,0,0,0,0.00
2014-4-14,65.2,50.9,39.6,38.3,18.3,9.2,41,15,1,0.00,0.00,0,0,0,0.00
2014-4-15,61.9,53.6,47.3,38.7,29.2,12.4,47,40,24,0.00,0.00,0,0,0,0.00
2014-4-16,64.1,56.0,46.6,39.2,29.3,15.2,46,36,23,24.01,24.01,0,0,0,0.00
2014-4-17,68.4,55.8,45.5,43.5,27.4,5.5,51,33,1,0.00,0.00,0,0,0,0.00
2014-4-18,59.4,53.6,49.1,36.8,13.7,0.4,48,17,1,0.00,0.00,0,0,0,0.00
2014-4-19,60.3,50.9,43.7,16.0,6.5,0.1,18,4,1,24.08,24.08,0,0,0,0.00
2014-4-20,67.3,55.4,46.1,43.4,28.7,3.5,50,36,1,24.18,0.00,0,0,0,0.00
2014-4-21,66.2,53.7,43.2,41.5,29.2,8.2,51,39,7,0.00,0.00,0,0,0,0.00
2014-4-22,52.2,45.1,38.7,31.9,19.0,5.6,52,27,1,24.00,24.00,0,0,0,0.00
2014-4-23,52.2,41.4,32.8,34.6,24.6,17.5,55,51,45,0.00,0.00,0,0,0,0.00
2014-4-24,58.5,46.4,36.5,38.1,23.2,7.6,51,22,1,0.00,0.00,0,0,0,0.00
2014-4-25,46.6,41.8,36.7,18.9,11.9,8.4,33,5,1,0.00,0.00,0,0,0,0.08
2014-4-26,30.1,27.4,25.0,23.9,22.1,20.0,1,1,1,23.77,0.00,0,0,0,1.81
2014-4-27,43.2,35.7,30.1,20.0,15.6,9.8,1,1,1,23.99,0.00,0,0,0,0.02
2014-4-28,53.3,44.0,33.3,24.8,9.7,0.5,44,4,1,24.11,0.00,0,0,0,0.00
2014-4-29,67.3,50.2,38.2,29.2,18.9,9.5,36,13,1,24.30,0.00,0,0,0,0.00
2014-4-30,70.9,55.5,43.0,31.0,22.7,16.6,46,31,13,24.27,0.00,0,0,0,0.00
2014-5-1,71.3,57.0,45.7,35.7,25.0,19.5,42,31,16,24.26,24.26,0,0,0,0.00
2014-5-2,71.8,61.2,50.6,44.1,37.4,32.1,50,42,30,24.24,24.24,0,0,0,0.00
2014-5-3,68.4,59.7,50.8,39.5,35.1,30.1,50,40,31,24.14,24.14,0,0,0,0.00
2014-5-4,67.9,56.9,46.8,40.8,28.3,6.2,52,33,1,24.09,24.09,0,0,0,0.00
2014-5-5,54.9,49.2,43.9,9.2,5.1,0.6,1,1,1,24.05,0.00,0,0,0,0.00
2014-5-6,35.8,32.4,30.4,19.6,18.1,15.5,1,1,1,0.00,0.00,0,0,0,0.17
2014-5-7,48.6,41.2,33.3,20.3,12.4,5.8,35,4,1,23.92,0.00,0,0,0,0.02
2014-5-8,56.5,46.4,38.0,26.2,8.7,0.7,31,4,1,0.00,0.00,0,0,0,0.00
2014-5-9,49.9,47.1,42.8,10.1,6.7,4.6,1,1,1,0.00,0.00,0,0,0,0.00
2014-5-10,50.2,44.2,37.6,14.0,8.6,1.4,18,4,1,24.05,24.05,0,0,0,0.00
2014-5-11,54.7,43.0,32.8,32.3,19.4,1.3,47,31,1,0.00,0.00,0,0,0,0.00
2014-5-12,64.4,51.0,38.9,31.4,24.3,19.0,51,38,21,24.18,0.00,0,0,0,0.00
2014-5-16,72.7,71.9,71.1,33.1,32.8,32.5,25,24,23,0.00,40.00,0,0,0,0.00
2014-5-17,74.2,69.9,62.8,35.7,32.2,26.1,29,25,19,0.00,0.00,5,3,0,0.04
2014-5-18,62.3,55.7,48.2,39.4,32.0,23.1,49,41,32,24.04,0.00,4,2,0,0.04
2014-5-19,58.7,52.2,45.7,37.3,32.7,29.3,56,48,39,24.02,0.00,5,2,0,0.00
2014-5-20,45.0,41.0,37.4,36.6,35.1,32.2,92,80,64,24.01,23.95,4,2,0,0.00
2014-5-21,52.0,44.1,39.4,42.8,37.9,33.5,89,79,69,23.99,23.99,5,2,0,0.04
2014-5-22,59.2,46.3,38.9,43.1,38.4,35.9,89,76,45,0.00,0.00,2,1,0,0.08
2014-5-23,64.6,53.9,43.6,44.2,40.4,36.3,77,62,44,24.08,24.08,4,2,0,0.02
2014-5-24,68.8,61.7,55.6,45.9,43.1,40.3,62,51,41,24.11,0.00,5,2,0,0.00
2014-5-25,77.4,65.4,53.1,55.5,47.7,44.3,72,55,38,0.00,0.00,5,2,0,0.00
2014-5-26,77.9,68.3,60.5,50.2,47.1,44.9,61,48,36,0.00,0.00,4,2,0,0.00
2014-5-27,78.1,68.3,60.5,45.0,41.3,37.8,49,38,29,24.18,24.18,5,2,0,0.00
2014-5-28,67.7,61.2,54.4,37.4,33.7,27.8,41,36,32,24.10,0.00,6,3,0,0.00
2014-5-29,70.6,59.4,48.1,35.0,30.8,25.6,48,35,25,24.08,24.06,4,2,0,0.00
2014-5-30,76.0,62.3,48.6,32.0,20.6,12.2,30,21,16,0.00,0.00,4,1,0,0.00
2014-5-31,71.1,62.0,52.9,33.3,28.6,24.2,37,29,23,0.00,0.00,4,2,0,0.00
2014-6-1,79.6,64.1,50.8,35.2,28.5,21.9,41,28,13,0.00,0.00,4,1,0,0.06
2014-6-2,75.1,64.0,52.4,33.0,24.8,17.3,41,26,12,0.00,0.00,6,2,0,0.06
2014-6-3,76.5,62.9,48.6,38.3,24.9,16.5,33,24,13,24.06,24.06,4,2,0,0.00
2014-6-4,75.4,64.1,55.1,40.8,36.2,28.1,46,36,28,0.00,0.00,6,2,0,0.00
2014-6-5,78.3,67.5,55.4,42.7,38.2,34.0,48,35,23,0.00,0.00,3,2,0,0.00
2014-6-6,74.7,67.7,61.2,41.8,36.7,30.8,39,32,26,24.02,24.02,4,2,0,0.00
2014-6-7,80.1,70.2,61.4,43.8,35.9,29.0,32,29,21,24.03,0.00,4,2,0,0.00
2014-6-8,87.7,72.8,58.1,50.2,42.7,33.9,54,37,16,24.08,0.00,4,2,0,0.00
2014-6-9,88.9,76.1,62.3,49.7,39.3,28.2,45,30,13,24.09,24.09,4,2,0,0.00
2014-6-10,85.1,73.4,62.6,43.9,37.5,32.8,36,28,19,24.02,24.02,4,2,0,0.00
2014-6-11,76.9,68.6,60.8,49.2,44.7,40.9,56,43,33,24.07,24.07,5,2,0,0.00
2014-6-12,78.3,68.2,61.0,52.7,47.3,44.6,62,48,33,24.09,0.00,6,3,0,0.00
2014-6-13,68.0,60.8,52.7,46.0,39.7,33.3,66,48,28,0.00,0.00,5,3,0,0.00
2014-6-14,69.5,60.6,49.3,36.7,32.6,29.8,51,36,26,0.00,0.00,4,2,0,0.00
2014-6-15,72.7,61.7,53.1,34.5,28.6,24.3,37,29,23,0.00,0.00,7,3,0,0.00
2014-6-16,64.4,57.0,50.2,38.5,34.1,25.7,56,43,25,23.99,0.00,5,2,0,0.00
2014-6-17,63.4,54.9,47.3,35.6,32.5,30.7,54,43,30,0.00,0.00,5,3,0,0.00
2014-6-18,71.6,58.4,45.0,38.4,32.3,27.6,54,39,28,24.10,24.06,5,1,0,0.00
2014-6-19,81.2,64.9,51.1,39.3,31.8,24.6,43,31,13,24.15,24.15,4,1,0,0.00
2014-6-20,76.9,68.1,59.6,35.7,31.6,26.6,32,26,21,24.17,0.00,5,2,0,0.00
2014-6-21,82.3,70.7,60.8,38.3,31.3,22.3,29,24,20,24.12,24.12,6,2,0,0.00
2014-6-22,79.2,68.5,60.7,31.7,23.4,9.4,28,19,13,0.00,0.00,4,3,0,0.00
2014-6-23,78.1,69.3,61.2,39.8,30.6,23.5,29,24,19,24.10,24.10,5,2,0,0.00
2014-6-24,75.2,68.0,61.7,43.1,38.3,32.2,37,34,28,0.00,0.00,6,3,0,0.00
2014-6-25,75.1,66.9,59.4,44.5,39.9,32.5,47,38,31,24.10,24.10,5,3,0,0.00
2014-6-26,65.0,61.5,56.0,47.6,43.1,38.7,61,51,41,0.00,0.00,6,3,0,0.00
2014-6-27,69.8,61.8,53.3,47.8,45.4,41.9,71,56,44,24.06,24.06,6,3,0,0.00
2014-6-28,77.4,67.4,57.8,51.0,45.7,40.8,55,46,37,0.00,0.00,5,2,0,0.00
2014-6-29,86.8,72.5,58.9,51.6,46.1,43.1,59,42,25,0.00,0.00,5,2,0,0.00
2014-6-30,95.6,77.1,61.7,49.7,43.6,39.1,48,33,15,24.14,24.12,3,1,0,0.00
2014-7-1,94.7,76.1,63.0,48.5,44.1,40.1,45,34,21,24.13,24.11,5,1,0,0.00
2014-7-2,91.6,75.4,62.6,47.1,44.3,40.2,49,35,19,24.15,24.13,4,2,0,0.00
2014-7-3,90.0,73.6,61.7,47.0,44.0,35.7,50,37,18,24.20,24.16,10,2,0,0.00
2014-7-4,91.3,73.5,60.8,46.0,41.1,37.2,44,33,21,24.26,24.23,6,2,0,0.00
2014-7-5,88.6,74.3,65.2,44.4,38.5,35.6,35,29,16,24.30,24.26,4,2,0,0.00
2014-7-6,83.9,72.9,65.2,48.3,42.4,36.9,54,35,21,24.29,24.22,4,2,0,0.02
2014-7-7,88.7,73.9,63.9,44.6,39.6,34.2,41,30,18,24.20,24.16,4,2,0,0.02
2014-7-8,90.7,77.5,69.8,36.7,25.8,12.7,22,16,11,24.21,24.17,5,2,0,0.00
2014-7-9,89.5,75.0,65.7,42.5,37.7,31.1,33,27,18,24.21,24.15,3,2,0,0.00
2014-7-10,84.4,72.6,64.8,47.0,39.3,31.8,35,30,23,24.16,24.13,5,2,0,0.00
2014-7-11,80.3,68.5,61.4,47.3,42.3,38.3,44,39,31,24.19,24.17,5,2,0,0.00
2014-7-12,86.4,70.0,58.1,52.8,46.8,37.3,62,46,18,24.25,24.23,5,2,0,0.00
2014-7-13,93.2,75.2,61.4,53.9,47.0,42.4,55,39,23,24.25,24.20,5,2,0,0.00
2014-7-14,91.1,77.6,68.4,52.5,49.8,47.8,48,39,25,24.25,24.23,3,1,0,0.00
2014-7-15,87.3,74.8,65.3,57.0,52.5,49.2,58,47,33,24.25,24.21,4,1,0,0.00
2014-7-16,85.7,71.5,62.8,55.7,53.1,51.0,67,54,34,24.22,24.16,5,1,0,0.00
2014-7-17,83.7,69.5,59.8,55.4,52.7,50.0,72,57,36,24.18,24.14,5,2,0,0.00
2014-7-18,88.2,69.1,56.9,53.7,50.2,42.5,74,55,23,24.19,24.15,4,1,0,0.00
2014-7-19,88.6,71.3,61.0,53.5,48.7,37.4,65,48,17,24.19,24.16,2,1,0,0.00
2014-7-20,84.2,68.4,59.9,53.3,49.5,46.5,62,52,33,24.19,24.15,3,1,0,0.02
2014-7-21,81.5,67.5,59.4,54.8,53.6,50.4,79,63,39,24.24,24.21,4,2,0,0.00
2014-7-22,86.4,68.7,58.1,53.3,49.3,46.0,67,52,30,24.28,24.24,4,2,0,0.00
2014-7-23,84.1,69.3,60.7,53.2,47.9,39.4,65,48,32,24.28,24.23,3,1,0,0.00
2014-7-24,91.1,69.6,55.4,54.4,51.0,47.3,74,56,29,24.20,24.14,4,1,0,0.00
2014-7-25,93.4,74.7,62.8,41.1,32.6,27.4,30,23,16,24.19,24.16,4,1,0,0.00
2014-7-26,91.3,74.5,62.5,45.8,41.4,37.3,42,32,20,24.24,24.21,4,2,0,0.00
2014-7-27,88.2,76.8,70.2,47.0,44.1,40.4,40,32,21,24.26,24.22,3,2,0,0.00
2014-7-28,74.5,70.3,65.2,50.9,45.5,40.9,45,41,38,24.33,24.30,3,1,0,0.00
2014-7-29,84.2,71.5,63.2,44.6,40.0,36.5,39,33,24,24.31,24.26,4,2,0,0.00
2014-7-30,88.6,75.5,68.9,49.3,46.0,43.1,40,36,26,24.26,24.24,5,2,0,0.00
2014-7-31,90.7,74.4,63.5,51.0,47.0,43.4,50,39,26,24.25,24.21,4,1,0,0.00
2014-8-1,94.5,77.0,66.8,48.1,44.9,40.2,46,34,16,24.22,24.19,4,2,0,0.00
2014-8-2,86.6,75.7,65.2,45.7,42.3,36.7,43,32,19,24.23,24.20,4,2,0,0.00
2014-8-3,69.3,62.1,56.2,57.2,49.2,39.4,90,67,34,24.24,24.17,4,1,0,0.58
2014-8-4,79.6,63.8,54.7,52.6,46.7,40.6,83,58,27,24.19,24.16,2,1,0,0.08
2014-8-5,82.8,66.0,57.2,50.8,46.7,42.8,64,51,33,24.23,24.21,5,2,0,0.00
2014-8-6,76.7,64.6,58.0,52.2,49.5,47.3,68,59,41,24.21,24.18,6,2,0,0.00
2014-8-7,86.0,67.1,54.7,53.9,49.4,41.4,75,57,23,24.18,24.15,4,1,0,0.00
2014-8-8,86.9,70.4,59.0,53.5,50.9,44.0,69,53,28,24.19,24.14,3,1,0,0.00
2014-8-9,89.6,72.9,61.6,49.8,46.0,42.4,55,40,24,24.21,24.18,4,2,0,0.00
2014-8-10,89.1,71.5,59.6,43.9,40.2,38.0,49,34,19,24.24,24.21,4,1,0,0.00
2014-8-11,83.0,71.2,62.1,51.0,43.4,39.1,44,38,26,24.22,24.19,4,1,0,0.00
2014-8-12,86.0,70.4,61.2,54.2,51.3,49.8,69,53,30,24.23,24.17,4,1,0,0.02
2014-8-13,86.0,68.9,60.5,50.2,46.0,42.5,67,46,23,24.20,24.16,4,1,0,0.00
2014-8-14,86.0,68.2,56.3,46.8,42.7,31.5,61,44,16,24.19,24.16,5,2,0,0.00
2014-8-15,89.1,70.2,56.9,41.1,32.5,23.5,48,29,13,24.25,24.22,6,2,0,0.00
2014-8-16,88.0,71.3,61.2,35.8,31.9,27.5,37,25,15,24.27,24.23,7,3,0,0.00
2014-8-17,90.0,72.6,61.6,42.0,33.0,16.9,32,24,15,24.24,24.21,6,2,0,0.00
2014-8-18,87.7,72.7,64.6,41.0,34.7,21.6,42,27,12,24.15,24.08,5,3,0,0.00
2014-8-19,80.6,66.1,57.6,40.1,36.4,28.4,43,34,24,24.08,24.02,4,3,0,0.00
2014-8-20,80.5,64.5,54.0,47.4,41.6,34.6,58,46,22,24.12,24.08,5,2,0,0.00
2014-8-21,81.9,66.0,54.0,48.3,41.4,35.6,54,42,29,24.19,24.15,5,1,0,0.00
2014-8-22,82.8,67.5,58.5,47.2,45.3,43.2,63,47,28,24.17,24.13,7,2,0,0.00
2014-8-23,82.4,66.0,56.5,46.5,43.2,38.2,57,45,28,24.15,24.09,6,2,0,0.00
2014-8-24,84.4,66.8,56.5,47.5,42.4,38.6,52,42,28,24.09,24.05,5,1,0,0.00
2014-8-25,81.5,65.8,56.3,43.4,33.3,18.3,58,35,10,24.09,24.07,4,2,0,0.00
2014-8-26,81.4,61.5,0.0,41.1,36.1,0.0,50,37,24,24.19,24.16,3,2,0,0.00
2014-8-27,86.8,66.7,54.5,39.7,37.0,32.5,48,36,19,24.29,24.26,5,2,0,0.00
2014-8-28,90.9,70.0,57.6,35.7,31.4,26.0,40,27,12,24.29,24.22,5,2,0,0.00
2014-8-29,89.3,70.7,59.6,45.3,33.6,22.3,37,26,17,24.18,24.14,3,2,0,0.00
2014-8-30,82.4,71.3,65.0,43.5,40.1,36.5,43,33,22,24.15,24.11,7,3,0,0.00
2014-8-31,82.1,70.4,63.0,39.6,34.5,25.5,38,27,22,24.14,24.08,8,4,0,0.00
2014-9-1,91.1,71.7,57.6,45.6,38.4,32.9,40,31,19,24.12,24.08,6,2,0,0.00
2014-9-2,90.0,71.5,60.1,45.3,40.1,33.4,44,33,21,24.12,24.07,5,2,0,0.00
2014-9-3,85.1,68.0,0.0,44.7,40.6,0.0,45,34,23,24.04,23.98,6,2,0,0.00
2014-9-4,86.4,69.3,58.0,47.0,41.6,34.9,49,38,24,24.02,23.98,2,1,0,0.00
2014-9-5,91.4,68.8,55.1,39.2,30.9,21.2,40,27,10,24.14,24.12,3,1,0,0.00
2014-9-6,90.4,70.4,60.1,46.7,37.1,27.3,43,31,19,24.21,24.16,4,1,0,0.00
2014-9-7,88.6,71.2,61.4,49.0,40.4,34.0,40,33,24,24.16,24.10,5,1,0,0.00
2014-9-8,75.6,67.5,55.3,54.0,41.9,31.8,80,42,26,24.12,24.09,4,1,0,0.06
2014-9-9,78.1,60.2,0.0,40.1,34.8,0.0,51,36,22,24.17,24.13,5,2,0,0.02
2014-9-10,90.2,68.1,55.3,36.8,32.2,26.6,48,30,12,24.19,24.14,4,1,0,0.00
2014-9-11,92.2,70.9,59.2,37.3,32.2,27.1,34,26,13,24.18,24.15,3,1,0,0.00
2014-9-12,92.9,72.4,59.9,39.6,34.1,30.6,34,26,15,24.19,24.13,5,2,0,0.00
2014-9-13,90.0,72.2,61.6,40.1,35.8,32.3,34,27,18,24.17,24.13,3,1,0,0.06
2014-9-14,88.7,72.5,62.3,46.1,40.6,36.5,39,32,23,24.21,24.16,5,1,0,0.06
2014-9-15,90.9,73.8,63.4,47.7,45.3,43.2,48,38,23,24.24,24.19,4,1,0,0.00
2014-9-16,88.4,72.6,62.6,50.8,47.0,44.2,52,42,26,24.22,24.17,5,1,0,0.00
2014-9-17,85.9,71.2,61.4,48.3,45.1,40.9,52,41,26,24.15,24.11,5,1,0,0.00
2014-9-18,76.7,65.0,57.8,49.7,42.2,32.1,52,44,36,24.11,24.10,5,3,0,0.00
2014-9-19,84.1,63.3,54.5,52.1,48.0,38.9,82,62,27,24.12,24.10,4,2,0,0.00
2014-9-20,81.7,64.7,55.1,50.4,43.9,38.0,66,49,23,24.19,24.14,4,1,0,0.00
2014-9-21,79.0,64.5,55.8,51.9,48.2,45.7,70,57,38,24.22,24.19,3,1,0,0.00
2014-9-22,81.5,64.9,53.1,50.6,44.4,40.9,67,50,27,24.25,24.22,6,1,0,0.00
2014-9-23,85.1,67.5,56.2,49.9,40.8,32.3,55,40,19,24.27,24.21,3,1,0,0.00
2014-9-24,85.5,67.4,55.8,41.3,36.9,33.7,54,36,17,24.24,24.18,4,1,0,0.00
2014-9-25,77.0,66.1,58.0,50.9,42.4,33.7,49,42,36,24.22,24.16,4,1,0,0.00
2014-9-26,65.5,56.2,49.3,49.0,44.9,39.2,79,67,48,24.11,24.05,4,1,0,0.00
2014-9-27,51.8,46.3,43.9,41.2,39.8,38.5,85,78,67,24.04,23.99,7,2,0,0.00
2014-9-28,57.2,49.1,44.1,42.0,40.1,37.6,83,72,56,24.06,24.01,4,2,0,0.00
2014-9-29,61.7,51.3,44.5,45.8,41.8,38.3,82,70,54,24.15,24.13,6,2,0,0.00
2014-9-30,68.4,56.4,47.5,45.5,40.8,36.5,76,58,36,24.14,24.06,4,1,0,0.00
2014-10-1,76.5,58.7,45.7,44.3,40.6,33.2,79,56,25,24.12,24.08,2,1,0,0.00
2014-10-2,80.1,60.2,49.3,31.5,24.2,13.9,44,29,10,24.30,24.26,2,1,0,0.00
2014-10-3,85.0,65.2,52.6,28.8,18.8,15.5,30,18,8,24.35,24.35,5,1,0,0.00
2014-10-4,79.2,66.5,57.4,30.6,22.8,19.5,28,20,11,24.32,24.27,3,1,0,0.00
2014-10-5,83.5,68.2,58.3,28.1,23.0,19.7,25,19,11,24.28,24.23,3,1,0,0.00
2014-10-6,82.8,68.3,58.7,30.4,22.2,18.8,22,18,11,24.26,24.19,4,1,0,0.00
2014-10-7,77.9,66.4,56.5,35.7,28.5,22.6,29,24,19,24.20,24.14,5,1,0,0.00
2014-10-8,73.8,64.2,57.4,40.6,38.1,36.3,47,39,30,24.17,24.13,3,2,0,0.00
2014-10-9,70.4,62.6,56.5,39.3,36.5,30.5,51,39,25,24.19,24.14,5,2,0,0.00
2014-10-10,68.8,62.1,55.1,38.3,31.1,24.9,36,31,28,24.23,24.19,6,2,0,0.00
2014-10-11,75.6,60.9,50.0,39.0,33.6,30.5,50,38,21,24.25,24.21,4,1,0,0.00
2014-10-12,76.3,63.2,52.2,43.2,35.1,29.0,49,37,18,24.22,24.18,3,1,0,0.00
2014-10-13,76.3,62.4,51.7,26.5,18.8,15.7,33,20,10,24.29,24.25,2,1,0,0.00
2014-10-14,74.9,61.9,52.2,24.0,16.0,12.2,21,17,12,24.21,24.11,2,1,0,0.00
2014-10-15,56.9,52.1,47.2,43.8,33.6,18.0,70,52,25,24.14,24.10,5,2,0,0.00
2014-10-16,63.7,51.7,43.2,44.1,38.4,32.0,75,61,48,24.15,24.11,4,1,0,0.00
2014-10-17,65.5,53.1,43.9,42.8,30.4,20.0,63,42,30,24.13,24.09,6,1,0,0.00
2014-10-18,67.0,53.1,42.5,39.2,34.9,29.4,74,53,31,24.13,24.08,3,1,0,0.00
2014-10-19,71.8,59.1,50.8,42.6,37.8,32.7,59,46,30,24.16,24.10,3,1,0,0.00
2014-10-20,67.0,58.0,51.3,43.2,37.5,32.7,56,48,29,24.15,24.10,4,2,0,0.00
2014-10-21,52.9,48.5,45.4,44.7,43.0,41.0,90,81,73,24.14,24.08,5,3,0,0.00
2014-10-22,70.9,54.7,42.5,42.6,31.5,26.6,59,43,25,24.20,24.14,3,1,0,0.00
2014-10-23,72.4,60.3,52.2,37.6,32.7,27.2,48,37,23,24.24,24.20,4,1,0,0.00
2014-10-24,75.4,62.2,53.3,28.6,25.3,22.9,34,26,15,24.24,24.18,2,1,0,0.00
2014-10-25,62.6,56.4,50.4,32.3,27.3,23.0,45,34,24,24.22,24.19,7,1,0,0.00
2014-10-26,50.9,47.4,44.5,42.3,39.9,37.0,81,75,65,24.15,24.08,6,3,0,0.00
2014-10-27,62.6,47.2,36.7,41.3,35.2,31.5,89,68,33,24.12,24.08,4,1,0,0.00
2014-10-28,66.2,53.5,45.0,35.3,29.0,26.6,57,41,23,24.22,24.18,1,0,0,0.00
2014-10-29,71.6,57.7,48.6,30.4,26.0,19.9,48,32,15,24.29,24.23,1,0,0,0.00
2014-10-30,70.9,59.7,52.4,27.4,23.6,16.6,36,26,13,24.22,24.14,1,0,0,0.00
2014-10-31,61.9,53.7,46.1,37.9,28.0,21.1,46,38,29,24.08,23.94,4,1,0,0.00
2014-11-1,36.2,35.4,33.5,33.8,32.9,30.5,92,90,85,23.97,23.91,5,3,0,1.27
2014-11-2,41.4,36.1,32.2,35.3,32.8,30.2,93,88,79,24.12,24.07,3,2,0,0.04
2014-11-3,49.7,38.3,30.4,34.3,30.8,26.7,92,76,42,24.24,24.21,2,0,0,0.00
2014-11-4,58.0,45.2,35.8,32.6,25.6,21.8,69,49,25,24.35,24.30,1,0,0,0.00
2014-11-5,66.6,52.7,44.1,35.0,29.2,23.6,48,41,31,24.34,24.30,2,0,0,0.00
2014-11-6,67.7,55.9,47.7,36.9,33.2,30.8,53,43,30,24.40,24.34,3,1,0,0.00
2014-11-7,67.7,55.2,47.2,43.2,35.5,30.8,54,48,35,24.34,24.26,3,1,0,0.00
2014-11-8,70.9,58.3,50.0,34.2,30.2,27.5,46,36,23,24.33,24.26,2,0,0,0.00
2014-11-9,68.6,58.2,51.3,36.5,31.0,27.3,42,36,25,24.21,24.06,4,1,0,0.00
2014-11-10,64.4,58.0,53.5,38.1,30.8,24.6,56,36,27,24.03,23.99,6,3,0,0.00
2014-11-11,56.7,52.3,47.7,42.2,34.5,28.5,71,51,38,24.03,24.00,6,3,0,0.00
2014-11-12,47.7,44.8,41.9,36.2,28.0,22.5,80,53,38,0.00,40.00,4,3,0,0.00
2014-11-13,52.4,47.9,42.5,46.8,34.7,18.5,87,64,32,24.15,24.10,5,3,0,0.00
2014-11-14,47.9,43.6,41.0,41.0,38.7,36.4,86,83,77,24.12,24.08,6,2,0,0.00
2014-11-15,45.2,41.4,38.7,38.4,36.6,35.3,90,83,76,24.15,24.09,8,3,0,0.00
2014-11-16,51.1,40.9,32.2,34.4,23.4,7.4,87,58,18,24.27,24.24,2,0,0,0.00
2014-11-17,55.1,43.0,34.6,11.7,5.9,1.1,28,22,15,24.29,24.24,2,0,0,0.00
2014-11-18,57.1,44.5,36.5,15.1,9.6,5.3,31,24,16,24.31,24.24,2,0,0,0.00
2014-11-19,52.2,45.7,40.1,31.8,18.5,9.2,58,34,27,24.21,24.16,4,1,0,0.00
2014-11-20,51.5,42.8,35.5,37.7,33.2,28.6,81,69,50,24.16,24.04,4,1,0,0.00
2014-11-21,43.9,38.6,35.8,37.8,35.1,33.1,91,87,78,24.10,24.04,3,1,0,0.15
2014-11-22,52.0,44.3,35.8,44.2,36.6,29.9,88,74,66,24.16,24.11,7,2,0,0.00
2014-11-23,50.2,42.0,34.4,41.1,35.0,27.6,91,78,47,24.29,24.25,3,1,0,0.04
2014-11-24,52.6,41.2,34.2,25.5,22.0,18.6,64,49,27,24.39,24.32,2,0,0,0.00
2014-11-25,58.0,46.4,37.8,21.5,17.7,14.1,44,33,22,24.48,24.42,2,1,0,0.00
2014-11-26,67.1,55.3,46.4,28.5,24.4,21.4,37,31,21,24.45,24.38,1,0,0,0.00
2014-11-27,67.7,57.0,49.7,26.6,21.7,13.8,36,27,13,24.36,24.26,2,0,0,0.00
2014-11-28,63.0,54.5,48.2,23.5,20.5,16.7,34,27,19,24.19,24.09,4,2,0,0.00
2014-11-29,57.1,50.2,44.8,15.9,10.4,3.4,25,20,17,24.06,23.98,5,2,0,0.00
2014-11-30,48.2,44.0,40.0,34.1,23.2,14.9,66,45,33,24.06,23.97,5,1,0,0.00
2014-12-1,51.1,43.7,36.9,37.9,34.3,31.3,81,70,53,24.24,24.16,2,0,0,0.00
2014-12-2,42.1,40.6,39.4,38.0,35.9,32.9,91,83,71,24.08,23.99,1,0,0,4.48
2014-12-3,49.1,43.3,38.7,46.2,40.8,36.3,93,91,85,24.09,24.02,1,0,0,0.17
2014-12-4,49.3,42.8,38.5,43.7,39.5,36.1,93,88,81,24.09,24.05,3,2,0,0.02
2014-12-5,47.7,42.1,37.4,42.2,38.7,35.0,93,88,81,24.20,24.16,1,0,0,0.00
2014-12-6,50.2,42.4,37.3,41.8,37.4,34.8,91,83,67,24.28,24.24,3,0,0,0.00
2014-12-7,52.2,42.8,36.4,40.7,36.3,33.7,91,79,57,24.33,24.26,1,0,0,0.00
2014-12-8,54.4,44.3,37.3,36.9,33.6,29.7,81,67,46,24.27,24.21,1,0,0,0.00
2014-12-9,55.4,46.0,38.5,36.5,30.1,25.9,71,55,36,24.26,24.19,1,0,0,0.00
2014-12-10,55.8,47.9,41.6,33.8,30.7,27.5,63,52,42,24.17,24.08,1,0,0,0.00
2014-12-11,54.4,48.8,43.2,33.8,29.9,26.3,59,48,44,24.03,23.94,2,1,0,0.00
2014-12-12,43.0,35.7,32.8,36.3,32.2,29.9,92,88,75,23.95,23.88,2,1,0,1.34
2014-12-13,35.1,32.6,31.1,32.5,30.5,29.2,93,92,90,24.12,24.07,3,1,0,0.64
2014-12-14,37.3,32.0,28.4,34.3,29.5,26.2,92,91,87,24.14,24.08,1,0,0,0.30
2014-12-15,37.3,32.6,29.2,32.2,29.5,26.9,92,88,81,24.11,24.00,1,0,0,0.25
2014-12-16,39.2,35.4,32.4,37.1,33.2,30.1,93,92,90,24.04,23.98,1,0,0,0.86
2014-12-17,36.4,33.4,32.0,34.2,31.3,30.1,93,92,92,24.04,23.98,3,1,0,0.38
2014-12-18,37.8,32.2,27.7,33.5,29.5,25.8,93,90,82,24.17,24.11,1,0,0,0.23
2014-12-19,42.3,35.9,31.5,35.8,32.1,29.5,92,87,67,24.21,24.16,2,1,0,0.15
2014-12-20,41.6,37.9,33.5,37.1,30.8,24.0,90,76,59,24.22,24.16,4,2,0,0.02
2014-12-21,47.0,42.6,37.4,41.1,37.8,33.6,88,83,80,24.26,24.21,6,2,0,0.00
2014-12-22,49.3,40.3,35.5,43.7,37.1,32.9,93,88,81,24.25,24.19,2,0,0,0.02
2014-12-23,56.5,45.9,39.4,37.5,35.2,32.5,87,68,43,24.31,24.24,1,0,0,0.02
2014-12-24,51.1,43.3,38.3,35.2,32.8,31.2,79,67,47,24.18,23.99,4,1,0,0.00
2014-12-25,33.1,29.9,27.7,29.3,26.8,23.8,91,88,81,23.94,23.90,5,1,0,0.58
2014-12-26,35.1,27.5,22.1,26.6,22.7,19.1,89,82,66,24.09,24.02,4,0,0,0.02
2014-12-27,38.7,28.2,20.9,23.8,18.4,15.7,81,68,44,24.28,24.24,2,0,0,0.02
2014-12-28,42.8,32.5,0.0,26.3,17.3,0.0,63,49,43,24.21,24.14,5,1,0,0.04
2014-12-29,44.8,36.5,30.6,23.0,16.0,9.9,72,45,24,24.12,24.00,6,3,0,0.02
2014-12-30,32.0,28.6,25.6,23.2,20.0,9.9,83,71,45,23.95,23.91,7,2,0,0.00
2014-12-31,29.9,22.5,17.1,18.4,8.5,1.7,75,55,42,23.99,23.94,4,1,0,0.00
2015-1-1,38.9,28.4,20.9,12.5,8.3,4.8,51,43,31,24.07,24.03,2,0,0,0.00
2015-1-2,42.7,33.2,26.3,15.8,10.1,6.6,47,38,29,24.11,24.05,3,1,0,0.00